Location: Pasadena-CA
(34.1440°N, 118.1100°W)
Time: 21:25:46
(UTC-07:00)

UKube-1 - Visible Passes

Search period start: 28 June 2022 00:00
Search period end: 08 July 2022 00:00
Orbit: 610 x 614 km, 98.4° (Epoch: 28 June)

Date Brightness Start Highest point End Pass type
(mag) Time Alt. Az. Time Alt. Az. Time Alt. Az.
28 Jun ? 22:33:25 10° NNE 22:36:57 51° ENE 22:36:57 51° ENE visible
29 Jun ? 00:12:37 10° WNW 00:13:00 10° WNW 00:13:22 10° WNW visible
29 Jun ? 22:48:11 10° NNE 22:51:55 67° NNE 22:51:55 67° NNE visible
30 Jun ? 23:03:03 10° N 23:06:53 56° NW 23:06:53 56° NW visible
01 Jul ? 21:43:46 10° ENE 21:44:51 13° ENE 21:44:51 13° ENE visible
01 Jul ? 23:18:02 10° N 23:21:51 39° WNW 23:21:51 39° WNW visible
02 Jul ? 21:57:42 10° NE 21:59:48 19° ENE 21:59:48 19° ENE visible
02 Jul ? 23:33:09 10° NNW 23:36:45 27° WNW 23:36:48 27° WNW visible
03 Jul ? 22:12:00 10° NE 22:14:45 27° ENE 22:14:45 27° ENE visible
03 Jul ? 23:48:28 10° NNW 23:51:26 19° WNW 23:51:45 18° WNW visible
04 Jul ? 22:26:31 10° NNE 22:29:41 39° ENE 22:29:41 39° ENE visible
05 Jul ? 00:04:11 10° NW 00:06:06 13° WNW 00:06:41 13° WNW visible
05 Jul ? 22:41:11 10° NNE 22:44:38 54° NE 22:44:38 54° NE visible
06 Jul ? 22:55:58 10° N 22:59:33 59° N 22:59:33 59° N visible
07 Jul ? 23:10:52 10° N 23:14:28 46° NW 23:14:28 46° NW visible
